EZY51UW EGNS-EGGD

Flight info

Callsign EZY51UW
Flight time 0h 39m
Altitude 25000
Route TIMIS Q39 NOMSU/N0343F230 Q4 WAL N862 WEVBE
Aircraft A20N/M-SDE2E3FGHIJ1RWXYZ/LB1G1

Departure

Time 2026-04-16 20:48
Airport Isle of Man Airport (EGNS)

Arrival

Time 2026-04-16 21:28
Airport Bristol Airport (EGGD)
Time Latitude Longitude Altitude Speed Heading
2026-04-16 20:31 54.08593 -4.63314 48 ft 0 kts 44°
2026-04-16 20:39 54.08587 -4.63324 48 ft 2 kts 44°
2026-04-16 20:39 54.08577 -4.63342 48 ft 2 kts 44°
2026-04-16 20:40 54.08566 -4.63361 48 ft 2 kts 66°
2026-04-16 20:40 54.08563 -4.63386 48 ft 2 kts 97°
2026-04-16 20:40 54.08568 -4.63409 48 ft 1 kts 128°
2026-04-16 20:40 54.08572 -4.63417 48 ft 1 kts 137°
2026-04-16 20:41 54.08575 -4.63420 48 ft 0 kts 134°
2026-04-16 20:44 54.08574 -4.63419 48 ft 0 kts 135°
2026-04-16 20:44 54.08562 -4.63399 48 ft 5 kts 134°
2026-04-16 20:45 54.08525 -4.63338 47 ft 6 kts 155°
2026-04-16 20:45 54.08476 -4.63356 47 ft 7 kts 182°
2026-04-16 20:45 54.08433 -4.63284 45 ft 10 kts 116°
2026-04-16 20:45 54.08398 -4.63162 44 ft 12 kts 105°
2026-04-16 20:46 54.08411 -4.63016 43 ft 13 kts 78°
2026-04-16 20:46 54.08432 -4.62851 43 ft 15 kts 77°
2026-04-16 20:46 54.08458 -4.62649 41 ft 18 kts 78°
2026-04-16 20:46 54.08487 -4.62416 41 ft 21 kts 78°
2026-04-16 20:47 54.08520 -4.62147 40 ft 24 kts 77°
2026-04-16 20:47 54.08550 -4.61890 39 ft 18 kts 84°
2026-04-16 20:47 54.08542 -4.61647 40 ft 24 kts 96°
2026-04-16 20:47 54.08463 -4.61441 40 ft 20 kts 210°
2026-04-16 20:48 54.08409 -4.61731 38 ft 57 kts 258°
2026-04-16 20:48 54.08271 -4.62840 41 ft 130 kts 257°
2026-04-16 20:48 54.08083 -4.64499 484 ft 149 kts 254°
2026-04-16 20:48 54.07901 -4.66180 1274 ft 148 kts 250°
2026-04-16 20:49 54.07713 -4.67834 2076 ft 145 kts 248°
2026-04-16 20:49 54.07481 -4.69601 2579 ft 160 kts 246°
2026-04-16 20:49 54.07019 -4.71354 3083 ft 168 kts 223°
2026-04-16 20:49 54.05975 -4.72231 3608 ft 182 kts 188°
2026-04-16 20:50 54.04668 -4.71681 4016 ft 218 kts 149°
2026-04-16 20:50 54.03551 -4.69742 4593 ft 242 kts 138°
2026-04-16 20:50 54.02364 -4.67591 5245 ft 257 kts 139°
2026-04-16 20:50 54.01123 -4.65400 6116 ft 263 kts 139°
2026-04-16 20:51 53.99861 -4.63166 7014 ft 268 kts 139°
2026-04-16 20:51 53.98576 -4.60878 7910 ft 272 kts 138°
2026-04-16 20:51 53.97270 -4.58544 8781 ft 276 kts 138°
2026-04-16 20:51 53.95950 -4.56183 9615 ft 281 kts 138°
2026-04-16 20:52 53.94604 -4.53777 10432 ft 286 kts 137°
2026-04-16 20:52 53.93219 -4.51307 10935 ft 301 kts 137°
2026-04-16 20:52 53.91724 -4.48644 11359 ft 320 kts 137°
2026-04-16 20:52 53.90149 -4.45838 11809 ft 335 kts 137°
2026-04-16 20:53 53.88535 -4.42946 12517 ft 342 kts 136°
2026-04-16 20:53 53.86994 -4.39906 13289 ft 347 kts 132°
2026-04-16 20:53 53.85538 -4.36593 14039 ft 353 kts 128°
2026-04-16 20:53 53.84135 -4.33169 14763 ft 357 kts 129°
2026-04-16 20:54 53.82731 -4.29724 15453 ft 362 kts 129°
2026-04-16 20:54 53.81298 -4.26211 16158 ft 365 kts 129°
2026-04-16 20:54 53.79852 -4.22676 16822 ft 369 kts 129°
2026-04-16 20:54 53.78390 -4.19105 17496 ft 372 kts 130°
2026-04-16 20:55 53.76920 -4.15526 18143 ft 375 kts 129°
2026-04-16 20:55 53.75428 -4.11892 18799 ft 378 kts 129°
2026-04-16 20:55 53.73925 -4.08244 19398 ft 382 kts 129°
2026-04-16 20:55 53.72405 -4.04564 19992 ft 386 kts 129°
2026-04-16 20:56 53.70877 -4.00863 20609 ft 389 kts 129°
2026-04-16 20:56 53.69341 -3.97152 21348 ft 388 kts 129°
2026-04-16 20:56 53.67808 -3.93451 22121 ft 386 kts 130°
2026-04-16 20:56 53.66275 -3.89761 22843 ft 385 kts 130°
2026-04-16 20:57 53.64734 -3.86059 23530 ft 384 kts 130°
2026-04-16 20:57 53.63220 -3.82426 24122 ft 386 kts 130°
2026-04-16 20:57 53.61672 -3.78721 24665 ft 389 kts 130°
2026-04-16 20:57 53.60102 -3.74969 24990 ft 392 kts 131°
2026-04-16 20:58 53.58531 -3.71220 25031 ft 393 kts 130°
2026-04-16 20:58 53.56956 -3.67464 25038 ft 394 kts 131°
2026-04-16 20:58 53.55399 -3.63761 25037 ft 394 kts 131°
2026-04-16 20:58 53.53824 -3.60009 25037 ft 394 kts 131°
2026-04-16 20:59 53.52240 -3.56250 25037 ft 393 kts 130°
2026-04-16 20:59 53.50671 -3.52531 25042 ft 393 kts 131°
2026-04-16 20:59 53.49077 -3.48762 25044 ft 394 kts 131°
2026-04-16 20:59 53.47568 -3.44928 25045 ft 397 kts 126°
2026-04-16 21:00 53.46236 -3.40896 25047 ft 399 kts 121°
2026-04-16 21:00 53.45084 -3.36686 25043 ft 400 kts 118°
2026-04-16 21:00 53.43997 -3.32383 25047 ft 399 kts 118°
2026-04-16 21:00 53.42923 -3.28113 25050 ft 399 kts 119°
2026-04-16 21:01 53.41846 -3.23857 25045 ft 399 kts 119°
2026-04-16 21:01 53.40749 -3.19541 25055 ft 400 kts 119°
2026-04-16 21:01 53.39454 -3.15517 25045 ft 391 kts 134°
2026-04-16 21:01 53.37570 -3.12371 25057 ft 381 kts 150°
2026-04-16 21:02 53.35294 -3.10213 25067 ft 375 kts 160°
2026-04-16 21:02 53.32943 -3.08361 25065 ft 376 kts 161°
2026-04-16 21:02 53.30585 -3.06514 25064 ft 375 kts 161°
2026-04-16 21:03 53.25874 -3.02784 25066 ft 374 kts 161°
2026-04-16 21:03 53.23546 -3.00930 25067 ft 374 kts 161°
2026-04-16 21:03 53.21196 -2.99061 25069 ft 374 kts 160°
2026-04-16 21:03 53.18839 -2.97181 25069 ft 374 kts 161°
2026-04-16 21:04 53.16505 -2.95322 25072 ft 374 kts 161°
2026-04-16 21:04 53.14164 -2.93463 25069 ft 375 kts 161°
2026-04-16 21:04 53.11807 -2.91593 25068 ft 375 kts 161°
2026-04-16 21:04 53.09431 -2.89851 25067 ft 370 kts 167°
2026-04-16 21:05 53.06972 -2.88844 25072 ft 364 kts 177°
2026-04-16 21:05 53.04480 -2.88593 25076 ft 360 kts 186°
2026-04-16 21:05 53.01947 -2.88772 25077 ft 361 kts 187°
2026-04-16 21:05 52.99435 -2.88994 25077 ft 361 kts 187°
2026-04-16 21:06 52.96962 -2.89213 25073 ft 361 kts 187°
2026-04-16 21:06 52.94428 -2.89431 25072 ft 362 kts 187°
2026-04-16 21:06 52.91918 -2.89647 25080 ft 361 kts 187°
2026-04-16 21:06 52.89422 -2.89938 25077 ft 360 kts 190°
2026-04-16 21:07 52.86943 -2.90462 25077 ft 359 kts 192°
2026-04-16 21:07 52.84446 -2.91053 25074 ft 360 kts 192°
2026-04-16 21:07 52.81969 -2.91628 25075 ft 360 kts 192°
2026-04-16 21:07 52.79502 -2.92202 25070 ft 360 kts 192°
2026-04-16 21:08 52.77041 -2.92776 25071 ft 360 kts 192°
2026-04-16 21:08 52.74537 -2.93364 25071 ft 360 kts 192°
2026-04-16 21:08 52.72066 -2.93916 25069 ft 360 kts 191°
2026-04-16 21:08 52.69575 -2.94264 25063 ft 362 kts 188°
2026-04-16 21:09 52.67078 -2.94464 25068 ft 361 kts 188°
2026-04-16 21:09 52.64573 -2.94678 25070 ft 361 kts 188°
2026-04-16 21:09 52.62043 -2.94896 25069 ft 361 kts 188°
2026-04-16 21:09 52.59541 -2.95107 25067 ft 360 kts 188°
2026-04-16 21:10 52.57072 -2.95311 25067 ft 361 kts 188°
2026-04-16 21:10 52.54575 -2.95518 25064 ft 360 kts 188°
2026-04-16 21:10 52.52080 -2.95725 25005 ft 356 kts 188°
2026-04-16 21:10 52.49612 -2.95927 24559 ft 354 kts 188°
2026-04-16 21:11 52.47156 -2.96130 23943 ft 354 kts 188°
2026-04-16 21:11 52.44727 -2.96331 23421 ft 351 kts 188°
2026-04-16 21:11 52.42274 -2.96534 22827 ft 352 kts 188°
2026-04-16 21:11 52.39842 -2.96738 22155 ft 354 kts 188°
2026-04-16 21:12 52.37392 -2.96941 21451 ft 357 kts 187°
2026-04-16 21:12 52.34897 -2.97147 20786 ft 359 kts 187°
2026-04-16 21:12 52.32416 -2.97348 20253 ft 356 kts 187°
2026-04-16 21:12 52.29947 -2.97549 19736 ft 353 kts 187°
2026-04-16 21:13 52.27488 -2.97750 19198 ft 351 kts 186°
2026-04-16 21:13 52.25068 -2.97947 18664 ft 349 kts 186°
2026-04-16 21:13 52.22646 -2.98145 18126 ft 347 kts 186°
2026-04-16 21:13 52.20248 -2.98337 17606 ft 345 kts 186°
2026-04-16 21:14 52.17856 -2.98528 17121 ft 341 kts 186°
2026-04-16 21:14 52.15530 -2.98715 16632 ft 338 kts 186°
2026-04-16 21:14 52.13193 -2.98905 16148 ft 335 kts 186°
2026-04-16 21:14 52.10863 -2.99092 15656 ft 332 kts 185°
2026-04-16 21:15 52.08575 -2.98753 15227 ft 335 kts 168°
2026-04-16 21:15 52.06379 -2.97414 14887 ft 339 kts 161°
2026-04-16 21:15 52.04236 -2.95871 14540 ft 338 kts 160°
2026-04-16 21:15 52.02112 -2.94305 14193 ft 336 kts 160°
2026-04-16 21:16 51.99965 -2.92716 13842 ft 334 kts 160°
2026-04-16 21:16 51.97855 -2.91157 13493 ft 332 kts 160°
2026-04-16 21:16 51.95764 -2.89612 13147 ft 330 kts 160°
2026-04-16 21:16 51.93668 -2.88073 12800 ft 329 kts 160°
2026-04-16 21:17 51.91606 -2.86568 12454 ft 328 kts 160°
2026-04-16 21:17 51.89498 -2.85035 12103 ft 326 kts 160°
2026-04-16 21:17 51.87435 -2.83538 11756 ft 324 kts 160°
2026-04-16 21:17 51.85380 -2.82053 11407 ft 323 kts 160°
2026-04-16 21:18 51.83326 -2.80583 11059 ft 322 kts 160°
2026-04-16 21:18 51.81286 -2.79135 10711 ft 320 kts 160°
2026-04-16 21:18 51.79263 -2.77707 10361 ft 319 kts 160°
2026-04-16 21:18 51.77211 -2.76274 10005 ft 318 kts 160°
2026-04-16 21:19 51.75219 -2.74893 9660 ft 313 kts 160°
2026-04-16 21:19 51.73225 -2.73511 9307 ft 307 kts 160°
2026-04-16 21:19 51.71296 -2.72173 8963 ft 301 kts 160°
2026-04-16 21:19 51.69378 -2.70842 8608 ft 296 kts 160°
2026-04-16 21:20 51.67503 -2.69541 8255 ft 291 kts 160°
2026-04-16 21:20 51.65664 -2.68264 7906 ft 286 kts 160°
2026-04-16 21:20 51.63842 -2.67002 7551 ft 282 kts 160°
2026-04-16 21:20 51.62051 -2.65759 7196 ft 278 kts 160°
2026-04-16 21:21 51.60298 -2.64543 6847 ft 274 kts 160°
2026-04-16 21:21 51.58558 -2.63339 6488 ft 271 kts 160°
2026-04-16 21:21 51.56839 -2.62154 6131 ft 268 kts 160°
2026-04-16 21:21 51.55131 -2.60972 5771 ft 264 kts 160°
2026-04-16 21:22 51.53453 -2.59809 5416 ft 262 kts 160°
2026-04-16 21:22 51.51779 -2.58646 5051 ft 259 kts 160°
2026-04-16 21:22 51.50146 -2.57510 4695 ft 257 kts 160°
2026-04-16 21:22 51.48479 -2.56471 4326 ft 252 kts 169°
2026-04-16 21:23 51.46785 -2.56043 3974 ft 248 kts 175°
2026-04-16 21:23 51.45144 -2.55239 3599 ft 252 kts 151°
2026-04-16 21:23 51.43869 -2.53243 3246 ft 257 kts 131°
2026-04-16 21:23 51.42695 -2.51181 2981 ft 245 kts 150°
2026-04-16 21:24 51.41194 -2.50313 2967 ft 220 kts 181°
2026-04-16 21:24 51.39796 -2.50822 2966 ft 201 kts 212°
2026-04-16 21:24 51.38914 -2.52446 2875 ft 192 kts 248°
2026-04-16 21:24 51.38731 -2.54522 2691 ft 182 kts 263°
2026-04-16 21:25 51.38747 -2.56458 2469 ft 167 kts 265°
2026-04-16 21:25 51.38777 -2.58252 2202 ft 156 kts 264°
2026-04-16 21:25 51.38757 -2.59898 1976 ft 142 kts 261°
2026-04-16 21:25 51.38696 -2.61427 1763 ft 133 kts 260°
2026-04-16 21:26 51.38648 -2.62904 1624 ft 133 kts 261°
2026-04-16 21:26 51.38605 -2.64366 1456 ft 133 kts 260°
2026-04-16 21:26 51.38525 -2.65844 1271 ft 131 kts 258°
2026-04-16 21:26 51.38437 -2.67289 1156 ft 133 kts 264°
2026-04-16 21:27 51.38402 -2.68778 910 ft 132 kts 262°
2026-04-16 21:27 51.38339 -2.70213 735 ft 130 kts 262°
2026-04-16 21:27 51.38282 -2.71624 635 ft 117 kts 264°
2026-04-16 21:27 51.38242 -2.72554 634 ft 56 kts 266°
2026-04-16 21:28 51.38223 -2.73043 634 ft 29 kts 266°
2026-04-16 21:28 51.38221 -2.73280 634 ft 15 kts 289°
2026-04-16 21:28 51.38295 -2.73345 634 ft 11 kts
2026-04-16 21:28 51.38373 -2.73283 634 ft 14 kts 60°
2026-04-16 21:29 51.38388 -2.73106 634 ft 17 kts 85°
2026-04-16 21:29 51.38397 -2.72888 634 ft 21 kts 88°
2026-04-16 21:29 51.38408 -2.72625 634 ft 25 kts 86°
2026-04-16 21:29 51.38420 -2.72316 634 ft 29 kts 86°
2026-04-16 21:30 51.38430 -2.72018 634 ft 25 kts 89°
2026-04-16 21:30 51.38433 -2.71758 634 ft 21 kts 87°
2026-04-16 21:30 51.38441 -2.71536 634 ft 20 kts 87°
2026-04-16 21:30 51.38450 -2.71307 634 ft 20 kts 86°
2026-04-16 21:31 51.38459 -2.71059 634 ft 23 kts 86°
2026-04-16 21:31 51.38470 -2.70852 634 ft 11 kts 62°
2026-04-16 21:31 51.38517 -2.70825 634 ft 4 kts 25°
2026-04-16 21:31 51.38530 -2.70773 634 ft 0 kts 86°